Hourly Data Report for October 27, 2013

All times are specified in Local Standard Time (LST). Add 1 hour to adjust for Daylight Saving Time where and when it is observed.

FORT LIARD
NORTHWEST TERRITORIES

60°14'00.000" N
123°28'00.000" W
213.40 m
2201579
71497
WJL

Download Data

Hourly Data (October 2013)
Hourly Data Report for October 27, 2013
Temp Definition
°C
Dew Point Temp Definition
°C
Rel Hum Definition
%
Wind Dir Definition
10's deg

Wind Spd Definition
km/h
Visibility Definition
km
Stn Press Definition
kPa
Hmdx Definition


Wind Chill Definition


Weather Definition


TIME
00:00 -2.0 -3.4 90 6 7   100.94   -5 LegendNANA
01:00 -2.2 -3.3 92 8 7   100.99   -5 LegendNANA
02:00 -2.5 -3.6 92 11 2   101.08   -3 LegendNANA
03:00 -4.2 -4.9 95 21 2   101.16   -5 LegendNANA
04:00 -3.0 -3.7 95 21 7   101.19   -6 LegendNANA
05:00 -2.9 -3.9 93 22 6   101.20   -5 LegendNANA
06:00 -3.5 -4.3 94 20 4   101.25   -5 LegendNANA
07:00 -4.1 -5.2 92 18 2   101.18   -5 LegendNANA
08:00 -3.9 -4.7 94 22 6   101.25   -7 LegendNANA
09:00 -2.8 -3.6 94 21 7   101.29   -6 LegendNANA
10:00 -2.3 -3.4 92 21 7   101.32   -5 LegendNANA
11:00 -1.7 -3.2 89 22 6   101.34   -4 LegendNANA
12:00 0.6 -2.4 80 22 7   101.32     LegendNANA
13:00 0.3 -2.0 85 22 9   101.25     LegendNANA
14:00 0.3 -1.8 86 22 7   101.18     LegendNANA
15:00 1.3 -1.6 81 22 13   101.17     LegendNANA
16:00 0.5 -1.6 86 23 9   101.13     LegendNANA
17:00 -1.1 -2.3 92 22 7   101.08   -4 LegendNANA
18:00 -1.4 -2.3 94 23 6   101.03   -4 LegendNANA
19:00 -2.8 -3.4 96 21 7   100.92   -6 LegendNANA
20:00 -2.0 -2.4 97 23 7   100.81   -5 LegendNANA
21:00 -2.4 -2.8 97 22 11   100.72   -6 LegendNANA
22:00 -2.4 -2.8 97 23 6   100.65   -5 LegendNANA
23:00 -2.6 -3.0 97 21 9   100.53   -6 LegendNANA

Notes on Data Quality.

Legend

  • E = Estimated
  • M = Missing
  • NA = Not Available
  • ‡ = Partner data that is not subject to review by the National Climate Archives
Date modified: